When you browse on this site, cookies collect data to enhance your experience and personalize the content and advertising you see.
Visit our Privacy Policy to learn more. By continuing to use the site, you agree to this use of cookies and data.
  • In United Kingdom
  • List of Countries
  • For 7 days
  • Water Temperature
  • Weather Map
  • Weather Widgets
  • user-avatar
    Login

    Hourly Weather Ermolovo

    Today, 16 October, Wednesday

    Time Temperature Precipitation Wind Pressure Humidity
    00:00 +9°C° 0 mm 5 mps 752 mmHg 90%
    01:00 +10°C° 0 mm 4 mps 752 mmHg 89%
    02:00 +10°C° 0 mm 4 mps 752 mmHg 86%
    03:00 +10°C° 0 mm 4 mps 751 mmHg 87%
    04:00 +10°C° 0 mm 5 mps 750 mmHg 87%
    05:00 +10°C° 0 mm 5 mps 750 mmHg 87%
    06:00 +10°C° 0 mm 5 mps 750 mmHg 86%
    07:00 +10°C° 0 mm 5 mps 749 mmHg 85%
    08:00 +12°C° 0 mm 5 mps 749 mmHg 83%
    09:00 +13°C° 0 mm 5 mps 749 mmHg 78%
    10:00 +15°C° 0 mm 5 mps 748 mmHg 73%
    11:00 +16°C° 0 mm 6 mps 748 mmHg 68%
    12:00 +17°C° 0 mm 5 mps 748 mmHg 66%
    13:00 +17°C° 0 mm 5 mps 748 mmHg 64%
    14:00 +19°C° 0 mm 5 mps 747 mmHg 62%
    15:00 +16°C° 0 mm 5 mps 747 mmHg 68%
    16:00 +15°C° 0 mm 4 mps 747 mmHg 73%
    17:00 +14°C° 0 mm 4 mps 746 mmHg 78%
    18:00 +13°C° 0 mm 4 mps 746 mmHg 81%
    19:00 +13°C° 0 mm 4 mps 746 mmHg 83%
    20:00 +12°C° 0 mm 4 mps 746 mmHg 85%
    21:00 +12°C° 0 mm 4 mps 746 mmHg 86%
    22:00 +12°C° 0 mm 4 mps 746 mmHg 86%
    23:00 +12°C° 0 mm 4 mps 746 mmHg 87%

    Tomorrow, 17 October, Thursday

    Time Temperature Precipitation Wind Pressure Humidity
    00:00 +13°C° 0 mm 4 mps 747 mmHg 87%
    01:00 +13°C° 0 mm 4 mps 747 mmHg 86%
    02:00 +13°C° 0 mm 4 mps 747 mmHg 86%
    03:00 +13°C° 0 mm 4 mps 747 mmHg 88%
    04:00 +13°C° 0 mm 4 mps 747 mmHg 90%
    05:00 +13°C° 0 mm 4 mps 746 mmHg 92%
    06:00 +12°C° 0 mm 4 mps 746 mmHg 90%
    07:00 +12°C° 0 mm 4 mps 746 mmHg 88%
    08:00 +11°C° 0 mm 4 mps 746 mmHg 86%
    09:00 +10°C° 0.3 mm 5 mps 746 mmHg 86%
    10:00 +10°C° 0.3 mm 5 mps 746 mmHg 86%
    11:00 +10°C° 0.3 mm 6 mps 747 mmHg 86%
    12:00 +11°C° 0.3 mm 6 mps 747 mmHg 86%
    13:00 +11°C° 0.3 mm 6 mps 747 mmHg 87%
    14:00 +13°C° 0.3 mm 5 mps 747 mmHg 88%
    15:00 +12°C° 0.3 mm 5 mps 747 mmHg 89%
    16:00 +12°C° 0.3 mm 5 mps 748 mmHg 89%
    17:00 +12°C° 0.3 mm 5 mps 748 mmHg 90%
    18:00 +12°C° 0.1 mm 5 mps 748 mmHg 90%
    19:00 +12°C° 0.1 mm 5 mps 749 mmHg 91%
    20:00 +12°C° 0.1 mm 5 mps 749 mmHg 91%
    21:00 +12°C° 0 mm 4 mps 749 mmHg 91%
    22:00 +11°C° 0 mm 4 mps 750 mmHg 92%
    23:00 +11°C° 0 mm 3 mps 750 mmHg 92%

    Day after tomorrow, 18 October, Friday

    Time Temperature Precipitation Wind Pressure Humidity
    00:00 +11°C° 0 mm 3 mps 750 mmHg 93%
    01:00 +10°C° 0 mm 3 mps 750 mmHg 94%
    02:00 +9°C° 0 mm 3 mps 750 mmHg 95%
    03:00 +10°C° 0 mm 2 mps 750 mmHg 95%
    04:00 +10°C° 0 mm 2 mps 750 mmHg 95%
    05:00 +10°C° 0 mm 2 mps 750 mmHg 94%
    06:00 +10°C° 0.1 mm 2 mps 751 mmHg 95%
    07:00 +10°C° 0.1 mm 2 mps 751 mmHg 95%
    08:00 +10°C° 0.1 mm 2 mps 751 mmHg 95%
    09:00 +11°C° 0 mm 3 mps 751 mmHg 94%
    10:00 +11°C° 0 mm 3 mps 751 mmHg 92%
    11:00 +12°C° 0 mm 3 mps 751 mmHg 91%
    12:00 +13°C° 0 mm 3 mps 751 mmHg 88%
    13:00 +14°C° 0 mm 2 mps 751 mmHg 84%
    14:00 +15°C° 0 mm 2 mps 751 mmHg 81%
    15:00 +14°C° 0 mm 2 mps 751 mmHg 84%
    16:00 +14°C° 0 mm 1 mps 751 mmHg 87%
    17:00 +13°C° 0 mm 1 mps 751 mmHg 90%
    18:00 +13°C° 0 mm 1 mps 751 mmHg 90%
    19:00 +13°C° 0 mm 1 mps 751 mmHg 91%
    20:00 +12°C° 0 mm 1 mps 752 mmHg 91%
    21:00 +12°C° 0 mm 1 mps 752 mmHg 91%
    22:00 +12°C° 0 mm 1 mps 752 mmHg 92%
    23:00 +12°C° 0 mm 2 mps 752 mmHg 92%

    19 October, Saturday

    Time Temperature Precipitation Wind Pressure Humidity
    00:00 +10°C° 0 mm 2 mps 752 mmHg 93%
    01:00 +10°C° 0 mm 2 mps 752 mmHg 94%
    02:00 +9°C° 0 mm 2 mps 751 mmHg 94%
    03:00 +9°C° 0 mm 2 mps 751 mmHg 94%
    04:00 +9°C° 0 mm 2 mps 751 mmHg 94%
    05:00 +9°C° 0 mm 2 mps 751 mmHg 94%
    06:00 +9°C° 0 mm 2 mps 751 mmHg 93%
    07:00 +10°C° 0 mm 2 mps 751 mmHg 92%
    08:00 +10°C° 0 mm 2 mps 751 mmHg 91%
    09:00 +12°C° 0 mm 2 mps 751 mmHg 88%
    10:00 +13°C° 0 mm 2 mps 751 mmHg 84%
    11:00 +14°C° 0 mm 3 mps 751 mmHg 80%
    12:00 +14°C° 0 mm 3 mps 751 mmHg 79%
    13:00 +16°C° 0 mm 2 mps 751 mmHg 79%
    14:00 +17°C° 0 mm 2 mps 751 mmHg 78%
    15:00 +16°C° 0 mm 2 mps 751 mmHg 82%
    16:00 +15°C° 0 mm 2 mps 751 mmHg 86%
    17:00 +14°C° 0 mm 2 mps 751 mmHg 91%
    18:00 +13°C° 0 mm 2 mps 751 mmHg 92%
    19:00 +13°C° 0 mm 2 mps 751 mmHg 93%
    20:00 +12°C° 0 mm 2 mps 751 mmHg 94%
    21:00 +12°C° 0 mm 2 mps 751 mmHg 94%
    22:00 +12°C° 0 mm 2 mps 751 mmHg 93%
    23:00 +12°C° 0 mm 2 mps 751 mmHg 93%

    20 October, Sunday

    Time Temperature Precipitation Wind Pressure Humidity
    00:00 +12°C° 0 mm 2 mps 751 mmHg 93%
    01:00 +12°C° 0 mm 2 mps 751 mmHg 92%
    02:00 +12°C° 0 mm 2 mps 751 mmHg 92%
    03:00 +12°C° 0 mm 2 mps 751 mmHg 91%
    04:00 +12°C° 0 mm 2 mps 751 mmHg 91%
    05:00 +11°C° 0 mm 1 mps 751 mmHg 91%
    06:00 +12°C° 0 mm 1 mps 751 mmHg 90%
    07:00 +12°C° 0 mm 1 mps 751 mmHg 90%
    08:00 +12°C° 0 mm 1 mps 751 mmHg 89%
    09:00 +12°C° 0 mm 1 mps 751 mmHg 87%
    10:00 +13°C° 0 mm 1 mps 751 mmHg 86%
    11:00 +13°C° 0 mm 1 mps 751 mmHg 85%
    12:00 +14°C° 0 mm 1 mps 751 mmHg 83%
    13:00 +15°C° 0 mm 2 mps 751 mmHg 81%
    14:00 +16°C° 0 mm 2 mps 751 mmHg 80%
    15:00 +15°C° 0 mm 1 mps 751 mmHg 84%
    16:00 +14°C° 0 mm 1 mps 751 mmHg 88%
    17:00 +13°C° 0 mm 1 mps 751 mmHg 92%
    18:00 +13°C° 0 mm 1 mps 752 mmHg 92%
    19:00 +13°C° 0 mm 1 mps 752 mmHg 93%
    20:00 +13°C° 0 mm 2 mps 752 mmHg 94%
    21:00 +13°C° 0 mm 1 mps 752 mmHg 94%
    22:00 +13°C° 0 mm 1 mps 752 mmHg 94%
    23:00 +12°C° 0 mm 1 mps 752 mmHg 94%

    21 October, Monday

    Time Temperature Precipitation Wind Pressure Humidity
    00:00 +12°C° 0 mm 1 mps 752 mmHg 94%
    01:00 +12°C° 0 mm 1 mps 752 mmHg 94%
    02:00 +12°C° 0 mm 1 mps 752 mmHg 94%
    03:00 +11°C° 0 mm 1 mps 752 mmHg 94%
    04:00 +11°C° 0 mm 1 mps 751 mmHg 94%
    05:00 +11°C° 0 mm 1 mps 751 mmHg 94%
    06:00 +11°C° 0 mm 1 mps 751 mmHg 94%
    07:00 +11°C° 0 mm 1 mps 751 mmHg 94%
    08:00 +11°C° 0 mm 1 mps 752 mmHg 95%
    09:00 +13°C° 0 mm 1 mps 752 mmHg 91%
    10:00 +14°C° 0 mm 2 mps 752 mmHg 88%
    11:00 +15°C° 0 mm 2 mps 752 mmHg 84%
    12:00 +16°C° 0 mm 2 mps 753 mmHg 82%
    13:00 +16°C° 0 mm 3 mps 753 mmHg 79%
    14:00 +17°C° 0 mm 3 mps 753 mmHg 77%
    15:00 +16°C° 0 mm 3 mps 754 mmHg 82%
    16:00 +14°C° 0 mm 3 mps 754 mmHg 87%
    17:00 +13°C° 0 mm 2 mps 754 mmHg 92%
    18:00 +12°C° 0 mm 2 mps 755 mmHg 93%
    19:00 +10°C° 0 mm 2 mps 755 mmHg 94%
    20:00 +9°C° 0 mm 2 mps 756 mmHg 96%
    21:00 +9°C° 0 mm 2 mps 756 mmHg 96%
    22:00 +8°C° 0 mm 2 mps 756 mmHg 96%
    23:00 +9°C° 0 mm 1 mps 757 mmHg 96%
    Show more